Tracking 29892 objects as of 21-Nov-2024
HD Live streaming from Space Station
objects crossing your sky now

COSMOS 1275 DEB

Track COSMOS 1275 DEB now!
10-day predictions


NORAD ID: 42136
Int'l Code: 1981-053QY
Perigee: 866.5 km
Apogee: 967.9 km
Inclination: 83.0 °
Period: 103.2 minutes
Semi major axis: 7288 km
RCS: Unknown
Launch date: June 4, 1981
Source: Commonwealth of Independent States (former USSR) (CIS)
Launch site: PLESETSK MISSILE AND SPACE COMPLEX (PKMTR)

Note: This is SATELLITE DEBRIS
Your satellite tracking list
Your tracking list is empty




NASA's NSSDC Master Catalog

Two Line Element Set (TLE):
1 42136U 81053QY  24320.54796062  .00005394  00000-0  38944-2 0  9994
2 42136  83.0233  69.2360 0069567 135.3390 225.3411 13.95325217 94379
Source of the keplerian elements: AFSPC